Starlink 2566

operational
NORAD ID: 48287 Int'l Des: 2021-036 Owner: SPXS Country: US Constellation: starlink
LEOCIRCULARSTARLINK_TYPE

Über Starlink 2566

Beschreibung wird geladen...

Live-Position

3D-Globus wird geladen...

Nächste Überflüge

Höhenverlauf

Altitude vs Time

uPlot chart will show altitude changes over time

Zweizeiliger Elementsatz

1 48287U 21036M 26034.94588631 .00000634 00000-0 61444-4 0 9996
2 48287 53.0547 233.0995 0001629 86.5074 273.6101 15.06402088263223
Epoch: 3. Feb. 2026 • Age: 14 hours

Aktueller Status

Höhe 549.4 km
Geschwindigkeit 7.59 km/s
Subsatellitenpunkt -6.53°S, 96.73°E
Startdatum 29. Apr. 2021
Alter 4.7 years
Typ internet

Technische Details

Klassifizierung Payload
Masse 260.00 kg
Trockenmasse 248.00 kg
Gesamtmasse 260.00 kg
Länge 0.20 m
Durchmesser 2.80 m
Spannweite 9.00 m
Form Box + pan
Hersteller SPXS
Bus-Typ Starlink
Phasenstatus In Orbit
Besitzer/Staat SPXS/US

Große Konstellationen

Loading constellations...